Fort Rucker / Ozark, AL

8:22 PM CDT on July 26, 2017 (GMT -0500)
Fort Rucker / Ozark

Weather History for KLOR - July, 2013

Change the Weather History Date:

Friday, July 12, 2013

  Actual Average (KOZR) Record (KOZR)
Temperature  
Mean Temperature 80 °F -  
Max Temperature 90 °F 88 °F 97 °F (2015)
Min Temperature 70 °F 69 °F 69 °F (2000)
Cooling Degree Days 15    
Growing Degree Days 30 (Base 50)    
Moisture  
Dew Point 72 °F    
Average Humidity 82    
Maximum Humidity 100    
Minimum Humidity 57    
Precipitation  
Precipitation 0.00 in - - ()
Sea Level Pressure  
Sea Level Pressure 29.89 in    
Wind  
Wind Speed 2 mph (NW)    
Max Wind Speed 7 mph    
Max Gust Speed -    
Visibility 8 miles    
Events Fog , Thunderstorm    
Averages and records for this station are not official NWS values.
T = Trace of Precipitation, MM = Missing Value Source: NWS Daily Summary

Daily Weather History Graph

Daily Weather History Graph

Search for Another Location

Airport or City:

Trip Planner

Search our weather history database for the weather conditions in past years. The results will help you decide how hot, cold, wet, or windy it might be!

Date:

Astronomy

Jul. 12, 2013 Rise Set
Actual Time 5:47 AM CDT 7:49 PM CDT
Civil Twilight 5:20 AM CDT 8:17 PM CDT
Nautical Twilight 4:46 AM CDT 8:50 PM CDT
Astronomical Twilight 4:10 AM CDT 9:26 PM CDT
Moon 9:44 AM CDT (7/12) 10:20 PM CDT (7/12)
Length of Visible Light 14h 57m
Length of Day
14h 02m
Waxing Crescent, 17% of the Moon is Illuminated
Jul 12
Waxing Crescent
Jul 15
First Quarter
Jul 22
Full
Jul 29
Last Quarter
Aug 6
New

Hourly Weather History & Observations

Time (CDT) Temp. Heat Index Dew Point Humidity Pressure Visibility Wind Dir Wind Speed Gust Speed Precip Events Conditions
12:53 AM 75.0 °F - 72.0 °F 90% 29.90 in 10.0 mi Calm Calm - N/A   Clear
1:53 AM 73.9 °F - 72.0 °F 93% 29.90 in 10.0 mi West 3.5 mph - N/A   Clear
2:53 AM 72.0 °F - 71.1 °F 97% 29.88 in 8.0 mi Calm Calm - N/A   Scattered Clouds
3:53 AM 72.0 °F - 71.1 °F 97% 29.88 in 9.0 mi Calm Calm - N/A   Clear
4:53 AM 71.1 °F - 70.0 °F 96% 29.89 in 8.0 mi Calm Calm - N/A   Clear
5:12 AM 71.6 °F - 71.6 °F 100% 29.90 in 10.0 mi Calm Calm - N/A Thunderstorm Thunderstorm
5:31 AM 71.6 °F - 69.8 °F 94% 29.90 in 8.0 mi Calm Calm - N/A   Clear
5:53 AM 70.0 °F - 69.1 °F 97% 29.90 in 6.0 mi Calm Calm - N/A   Mostly Cloudy
6:19 AM 71.6 °F - 69.8 °F 94% 29.90 in 7.0 mi Calm Calm - N/A   Overcast
6:33 AM 71.6 °F - 71.6 °F 100% 29.90 in 1.5 mi Calm Calm - N/A   Overcast
6:41 AM 71.6 °F - 71.6 °F 100% 29.91 in 0.2 mi Calm Calm - N/A Fog Fog
6:53 AM 72.0 °F - 72.0 °F 100% 29.90 in 0.2 mi Calm Calm - N/A Fog Fog
7:31 AM 73.4 °F - 71.6 °F 94% 29.92 in 1.8 mi NNW 3.5 mph - N/A   Overcast
7:35 AM 73.4 °F - 71.6 °F 94% 29.92 in 3.0 mi Calm Calm - N/A   Overcast
7:53 AM 73.0 °F - 72.0 °F 96% 29.92 in 5.0 mi North 3.5 mph - N/A   Overcast
8:35 AM 73.4 °F - 71.6 °F 94% 29.93 in 10.0 mi Calm Calm - N/A   Overcast
8:53 AM 75.9 °F - 72.0 °F 87% 29.92 in 10.0 mi Calm Calm - N/A   Overcast
9:36 AM 78.8 °F - 73.4 °F 83% 29.93 in 10.0 mi NW 4.6 mph - N/A   Overcast
9:53 AM 81.0 °F 85.8 °F 73.0 °F 77% 29.91 in 10.0 mi Variable 4.6 mph - N/A   Mostly Cloudy
10:45 AM 82.4 °F 88.2 °F 73.4 °F 74% 29.92 in 10.0 mi Variable 3.5 mph - N/A   Mostly Cloudy
10:53 AM 82.9 °F 88.8 °F 73.0 °F 72% 29.91 in 10.0 mi North 5.8 mph - N/A   Mostly Cloudy
11:53 AM 84.9 °F 91.4 °F 73.0 °F 67% 29.90 in 10.0 mi Calm Calm - N/A   Partly Cloudy
12:14 PM 84.2 °F 90.9 °F 73.4 °F 70% 29.91 in 10.0 mi NW 4.6 mph - N/A   Mostly Cloudy
12:35 PM 86.0 °F 93.4 °F 73.4 °F 66% 29.90 in 10.0 mi WNW 5.8 mph - N/A   Scattered Clouds
12:53 PM 87.1 °F 94.5 °F 73.0 °F 63% 29.89 in 10.0 mi Variable 4.6 mph - N/A   Partly Cloudy
1:53 PM 88.0 °F 94.7 °F 72.0 °F 59% 29.87 in 10.0 mi Calm Calm - N/A   Scattered Clouds
2:53 PM 86.0 °F 93.8 °F 73.9 °F 67% 29.86 in 10.0 mi Calm Calm - N/A   Overcast
3:53 PM 90.0 °F 97.9 °F 73.0 °F 57% 29.85 in 10.0 mi Variable 3.5 mph - N/A   Partly Cloudy
4:53 PM 89.1 °F 96.0 °F 72.0 °F 57% 29.81 in 10.0 mi SSW 4.6 mph - N/A   Clear
5:16 PM 87.8 °F 93.8 °F 71.6 °F 58% 29.85 in 10.0 mi WSW 3.5 mph - N/A Thunderstorm Thunderstorm
5:32 PM 87.8 °F 93.8 °F 71.6 °F 58% 29.86 in 10.0 mi NNW 5.8 mph - N/A   Mostly Cloudy
5:46 PM 86.0 °F 93.4 °F 73.4 °F 66% 29.86 in 10.0 mi North 5.8 mph - N/A Thunderstorm Thunderstorm
5:53 PM 86.0 °F 93.8 °F 73.9 °F 67% 29.86 in 10.0 mi East 3.5 mph - N/A Thunderstorm Thunderstorm
6:53 PM 81.0 °F 84.9 °F 71.1 °F 72% 29.83 in 10.0 mi Calm Calm - N/A Thunderstorm Thunderstorm
7:04 PM 80.6 °F 84.6 °F 71.6 °F 74% 29.86 in 10.0 mi ENE 4.6 mph - N/A   Partly Cloudy
7:46 PM 77.0 °F - 69.8 °F 78% 29.89 in 10.0 mi ESE 3.5 mph - N/A Thunderstorm Thunderstorm
7:53 PM 78.1 °F - 71.1 °F 79% 29.89 in 10.0 mi Calm Calm - N/A Thunderstorm Thunderstorm
8:53 PM 75.9 °F - 72.0 °F 87% 29.89 in 10.0 mi South 3.5 mph - N/A Thunderstorm Thunderstorm
9:53 PM 75.0 °F - 71.1 °F 87% 29.89 in 10.0 mi WSW 6.9 mph - N/A   Clear
10:53 PM 73.9 °F - 72.0 °F 93% 29.89 in 10.0 mi Calm Calm - N/A   Clear
11:53 PM 73.9 °F - 71.1 °F 91% 29.90 in 10.0 mi South 3.5 mph - N/A   Clear